Date/Time (UTC),PHv2,PWv2,PTv2,PSv3,PHv3,PWv3,PTv3,MESH,VIL,CompRef,Ref -20C,Flash Rate,Max Flash Density,LJA sigma-level,Max 0-2km AzShear,LLAZ 98th%,MLAZ 98th%,MUCAPE,MLCAPE,CAPE -10C to -30C,MLCIN,SRH 0-1km AGL,EBShear,MeanWind 0-1km AGL,Norm. Sat. Growth Rate,ICP,PWAT,WBZ,AvgBeamHgt,STP(eff),DCAPE,ESRH,LLLR,MLLR
2023/06/13 18:40,8,2,0,9,8,1,0,0.22,7,50.0,46,0,0,0,3,2,2,2065,1331,820,0,27,47,10,1.6,0,0.8,6.0,11.14,0,711,0,8.6,8.4
2023/06/13 18:42,8,2,0,16,13,2,0,0.22,8,52.0,44,0,0.02,0,4,3,3,2040,1331,813,0,26,47,10,1.6,0,0.8,6.0,11.25,0,714,0,8.6,8.4
2023/06/13 18:44,8,2,0,15,15,2,0,0.22,8,52.0,45,0,0.03,0,4,3,3,2023,1330,812,0,25,47,10,1.6,0,0.8,6.0,11.36,0,721,0,8.7,8.4
2023/06/13 18:46,11,3,0,15,14,2,0,0.31,10,52.0,47,0,0.03,0,3,3,3,2023,1331,820,0,25,47,10,1.6,0,0.8,6.0,11.14,0,714,0,8.7,8.4
2023/06/13 18:48,11,3,0,22,22,2,1,0.31,10,51.5,46,0,0.03,0,6,5,5,2023,1331,813,0,25,47,10,1.6,0,0.8,6.0,11.26,0,721,0,8.7,8.4
2023/06/13 18:50,11,3,0,20,19,2,1,0.31,10,51.5,45,0,0.03,0,6,5,4,2019,1326,810,0,25,47,10,1.6,0,0.8,6.0,11.48,0,721,0,8.7,8.4
2023/06/13 18:52,9,2,0,18,17,2,1,0.3,9,51.5,44,0,0.03,0,6,5,3,2023,1330,811,0,25,47,10,1.6,0,0.8,6.0,11.44,0,721,0,8.6,8.4
2023/06/13 18:54,8,2,0,18,18,2,0,0.24,8,51.0,46,0,0.03,0,6,4,4,2023,1330,811,0,25,47,10,1.6,0,1.0,6.0,11.44,0,721,0,8.6,8.4
2023/06/13 18:56,8,2,0,18,18,2,0,0.22,8,48.5,46,0,0.03,0,4,3,4,2023,1330,810,0,26,47,10,1.6,0,1.0,6.0,11.5,0,721,0,8.6,8.4
2023/06/13 18:58,14,3,0,17,17,2,0,0.35,10,51.0,48,0,0.03,0,4,3,3,2022,1326,810,0,26,47,10,1.6,0,1.0,6.0,11.55,0,721,0,8.6,8.4
2023/06/13 19:00,14,3,0,22,22,3,0,0.35,11,53.0,48,1,0.03,0,3,3,3,1911,1299,774,0,22,44,13,1.6,0,1.0,6.1,11.53,0,721,0,8.8,8.3
2023/06/13 19:02,16,3,0,25,25,3,1,0.44,13,53.5,50,1,0.03,0,4,4,4,1876,1285,772,0,21,44,13,1.6,0,1.0,6.1,11.49,0,721,0,8.8,8.2
2023/06/13 19:04,26,4,0,39,39,4,1,0.58,18,56.0,52,3,0.12,0,4,4,4,1841,1275,762,0,21,43,13,1.6,4,0.9,6.1,11.29,0,721,0,8.9,8.3
2023/06/13 19:06,68,13,0,60,60,8,2,1.13,32,60.5,58,6,0.19,0,6,5,6,1624,1152,686,0,18,40,13,1.6,5,0.9,6.0,10.79,0,721,0,9.0,8.3
2023/06/13 19:08,76,19,0,63,61,8,2,1.32,34,61.0,60,6,0.19,0,5,5,5,1477,1053,628,0,16,39,12,1.6,8,0.9,5.9,10.56,0,721,0,9.1,8.4
2023/06/13 19:10,81,19,0,65,65,10,2,1.35,36,61.0,60,9,0.23,0,6,5,5,1624,1152,697,0,18,41,13,1.6,18,0.9,6.0,10.85,0,721,0,9.0,8.3
2023/06/13 19:12,83,27,0,70,68,14,3,1.35,36,62.5,58,9,0.23,0,7,6,6,1737,1229,741,0,20,42,13,1.6,24,0.9,6.1,11.07,0,721,0,9.0,8.3
2023/06/13 19:14,83,46,0,76,72,14,5,1.35,36,62.5,57,9,0.23,0,7,6,7,1828,1271,756,0,21,43,13,1.6,57,0.9,6.1,11.14,0,721,0,8.9,8.3
2023/06/13 19:16,81,46,0,74,74,14,4,1.31,35,62.5,60,10,0.23,0,7,6,6,1841,1275,762,0,21,43,13,1.6,44,0.9,6.1,11.25,0,721,0,8.9,8.3
2023/06/13 19:18,81,46,0,74,72,13,4,1.31,35,62.0,60,10,0.23,0,7,6,6,1843,1285,766,0,21,44,13,1.6,17,0.9,6.1,11.3,0,721,0,8.9,8.3
2023/06/13 19:20,83,27,0,71,69,12,3,1.31,35,62.0,58,10,0.23,0,5,5,5,1876,1298,772,0,21,44,13,1.6,14,0.9,6.1,11.3,0,721,0,8.8,8.3
2023/06/13 19:22,82,19,0,67,67,12,2,1.28,33,62.0,56,10,0.23,0,5,5,5,1911,1299,774,0,21,44,13,1.6,12,0.9,6.1,11.41,0,721,0,8.8,8.3
2023/06/13 19:24,75,19,0,65,57,10,2,1.18,33,59.5,56,7,0.23,0,5,4,5,1938,1317,775,0,22,45,13,1.6,31,0.9,6.1,11.57,0,722,0,8.7,8.3
2023/06/13 19:26,67,15,0,63,57,10,2,1.05,32,59.5,58,7,0.23,0,4,3,5,1978,1317,775,0,22,45,13,1.6,39,0.9,6.1,11.67,0,722,0,8.7,8.3
2023/06/13 19:28,83,19,0,70,69,14,3,1.35,34,63.0,60,7,0.23,0,6,5,6,1981,1330,775,0,23,45,13,1.6,38,1.0,6.1,11.92,0,726,0,8.7,8.3
2023/06/13 19:30,87,25,0,74,70,17,3,1.5,36,64.5,61,11,0.23,4.6,6,5,5,1981,1330,775,0,23,45,13,1.6,39,1.0,6.1,12.06,0,727,0,8.6,8.3
2023/06/13 19:32,89,40,0,78,71,19,3,1.61,36,65.0,62,14,0.27,1.6,6,5,6,1981,1330,774,0,23,45,13,1.6,40,1.0,6.1,12.07,0,727,0,8.6,8.3
2023/06/13 19:34,89,40,0,80,73,19,4,1.61,37,65.0,63,15,0.27,0.5,6,5,5,1981,1330,774,0,23,45,13,1.6,54,1.0,6.1,12.12,0,727,0,8.6,8.3
2023/06/13 19:36,89,40,0,80,77,19,4,1.61,37,65.5,64,15,0.27,0,6,5,3,2001,1332,775,0,24,45,13,0,57,1.0,6.1,12.24,0,727,0,8.6,8.3
2023/06/13 19:38,91,33,0,90,90,19,3,1.84,37,66.0,64,15,0.29,1.6,6,5,4,1983,1332,774,0,24,45,13,0,71,1.0,6.1,12.26,0,727,0,8.6,8.3
2023/06/13 19:40,92,33,0,85,85,17,3,1.84,37,66.0,61,18,0.29,0.8,5,4,3,1981,1331,772,0,24,45,13,0,72,1.0,6.1,12.39,0,727,0,8.6,8.3
2023/06/13 19:42,94,33,0,85,85,20,3,1.84,36,66.0,60,24,0.29,1.4,5,4,3,1978,1317,771,0,24,45,13,0,73,1.0,6.1,12.44,0,728,0,8.6,8.3
2023/06/13 19:44,93,33,0,74,63,20,2,1.49,35,62.0,60,26,0.29,0.5,3,3,3,1950,1317,767,0,24,45,12,0,71,1.0,6.1,12.52,0,728,0,8.5,8.4
2023/06/13 19:46,96,33,0,81,65,38,3,1.69,35,66.0,63,44,0.35,3.7,3,3,3,1950,1317,767,0,24,45,13,0,72,1.0,6.1,12.54,0,728,0,8.6,8.4
2023/06/13 19:48,97,33,0,86,86,38,3,1.77,34,66.0,64,44,0.35,-2,3,3,3,1950,1317,767,0,24,45,13,0,69,1.0,6.1,12.54,0,728,0,8.6,8.4
2023/06/13 19:50,97,40,0,80,80,29,3,1.77,34,66.0,62,44,0.47,1.3,3,3,2,1938,1299,767,0,24,45,12,0,68,1.0,6.1,12.62,0,729,0,8.5,8.4
2023/06/13 19:52,97,40,0,83,83,36,3,1.77,36,66.0,62,44,0.47,-1,3,3,2,1938,1299,767,0,24,45,12,0,67,1.0,6.1,12.65,0,732,0,8.6,8.4
2023/06/13 19:54,98,33,0,89,89,30,3,2.14,38,69.0,65,43,0.49,0,3,2,2,1938,1293,765,0,24,45,12,0,72,1.0,6.1,12.78,0,732,0,8.5,8.4
2023/06/13 19:56,98,40,0,88,88,33,3,2.14,38,69.0,64,43,0.49,0.3,4,3,3,1938,1292,763,0,24,45,12,0,71,1.0,6.1,12.91,0,732,0,8.5,8.4
2023/06/13 19:58,96,33,0,82,82,25,2,2.14,38,69.0,62,28,0.49,0,3,3,3,1922,1286,761,0,25,45,12,0,37,1.0,6.1,12.91,0,732,0,8.5,8.4
2023/06/13 20:00,95,33,0,79,76,24,2,1.81,34,68.0,61,28,0.49,0.1,3,3,3,2016,1294,703,0,47,43,19,0,25,1.0,6.4,12.97,0,635,0,8.4,8.1
2023/06/13 20:02,95,33,0,77,66,25,2,1.66,34,65.5,62,28,0.49,0.3,4,3,3,2012,1267,703,0,46,44,19,0,21,1.0,6.4,13.05,0,635,0,8.4,8.1
2023/06/13 20:04,94,33,0,79,69,24,2,1.66,35,66.5,62,27,0.49,1.2,4,3,2,2004,1265,707,0,46,44,19,0,48,1.0,6.4,13.1,0,643,0,8.4,8.1
2023/06/13 20:06,94,33,0,78,67,24,2,1.69,35,67.0,63,27,0.49,0,3,3,3,2004,1265,711,0,46,44,19,0,46,1.0,6.4,13.18,0,644,0,8.4,8.1
2023/06/13 20:08,96,33,0,85,85,33,2,1.76,35,67.0,63,34,0.49,2.1,3,3,3,2008,1267,723,0,47,45,19,0,55,1.1,6.4,13.34,0,646,0,8.3,8.1
2023/06/13 20:10,96,40,0,84,81,36,3,1.82,34,67.0,64,34,0.49,-1,3,3,4,1994,1258,732,0,46,46,19,0,51,1.1,6.4,13.36,0,647,0,8.4,8.1
2023/06/13 20:12,96,40,0,89,89,38,3,1.83,36,67.0,64,34,0.49,0,4,3,4,1986,1255,732,0,46,46,19,0,48,1.1,6.4,13.36,0,654,0,8.4,8.1
2023/06/13 20:14,97,40,0,89,89,31,4,1.89,36,67.0,64,37,0.49,1.8,4,3,3,1960,1233,732,0,46,47,19,0,69,1.1,6.4,13.33,0,663,0,8.4,8.1
2023/06/13 20:16,97,58,0,89,87,39,4,1.89,40,67.0,62,37,0.49,-1,5,4,4,1960,1233,732,0,46,47,19,0,69,1.1,6.4,13.33,0,663,0,8.4,8.1
2023/06/13 20:18,97,58,0,90,90,38,4,1.89,40,67.0,64,37,0.49,0,5,4,4,1960,1233,732,0,46,47,19,0,70,1.1,6.4,13.33,0,663,0,8.4,8.1
2023/06/13 20:20,97,65,0,90,90,32,5,1.94,41,66.0,64,37,0.5,1.4,5,4,5,1915,1187,735,0,44,48,19,0,72,1.1,6.3,13.24,0,683,0,8.4,8.2
2023/06/13 20:22,96,69,0,91,81,40,11,1.94,41,66.0,63,32,0.5,0,7,5,6,1886,1175,735,0,44,49,19,0,74,1.1,6.3,13.08,0,689,0,8.4,8.2
2023/06/13 20:24,96,65,0,91,85,41,11,1.94,41,66.0,61,32,0.5,0.1,7,5,5,1848,1175,735,0,44,50,19,0,71,1.1,6.3,12.89,0,693,0,8.4,8.2
2023/06/13 20:26,95,65,0,91,78,39,11,1.72,40,66.0,61,32,0.5,0,7,5,5,1835,1174,732,0,44,50,19,0,73,1.0,6.3,12.8,0,693,0,8.4,8.2
2023/06/13 20:28,92,65,0,87,78,28,9,1.48,39,64.0,61,23,0.5,0.1,6,5,5,1803,1164,730,0,44,51,19,0,68,1.0,6.2,12.54,0,706,0,8.4,8.2
2023/06/13 20:30,93,65,0,86,76,26,10,1.48,38,63.5,60,25,0.5,1.1,6,5,5,1784,1147,730,0,44,51,19,0,66,1.0,6.2,12.48,0,711,0,8.5,8.2
2023/06/13 20:32,93,65,0,85,75,26,8,1.48,38,63.0,61,26,0.5,0.1,6,5,5,1767,1133,726,0,44,52,19,0,69,1.0,6.2,12.38,0,712,0,8.5,8.2
2023/06/13 20:34,95,65,0,89,80,35,12,1.72,40,63.5,62,26,0.5,0,8,5,5,1763,1133,723,0,44,52,19,0,71,1.0,6.2,12.33,0,712,0,8.5,8.2
2023/06/13 20:36,96,65,0,93,93,40,13,2.06,43,69.0,64,26,0.5,0.4,8,5,5,1725,1133,717,0,44,53,19,0,71,1.0,6.2,12.09,0,714,0,8.5,8.3
2023/06/13 20:38,96,65,0,91,86,40,12,2.06,43,69.0,62,26,0.5,0.0,7,5,5,1721,1133,715,0,44,53,19,0,71,1.0,6.2,12.03,0,714,0,8.5,8.3
2023/06/13 20:40,95,65,0,93,93,39,12,2.3,43,70.0,65,26,0.5,0.1,7,5,5,1719,1164,714,0,45,55,19,0,72,1.0,6.2,11.73,0,732,0,8.5,8.4
2023/06/13 20:42,95,65,0,93,89,36,14,2.3,43,70.0,62,26,0.5,0.2,7,5,6,1696,1142,711,0,45,55,19,0,72,1.0,6.2,11.63,0,732,0,8.5,8.4
2023/06/13 20:44,96,65,0,92,90,34,13,2.3,43,70.0,60,26,0.5,-1,6,6,6,1697,1174,715,0,45,56,19,0,78,1.0,6.2,11.56,0,732,0,8.5,8.4
2023/06/13 20:46,92,71,0,90,79,35,13,1.52,40,68.5,61,26,0.5,1.1,6,6,6,1696,1185,711,0,45,57,19,0,78,1.0,6.2,11.37,0,734,0,8.5,8.5
2023/06/13 20:48,93,69,0,91,81,32,16,1.65,42,68.0,62,26,0.5,0.8,7,6,6,1679,1191,708,0,44,58,19,0,79,1.0,6.2,11.22,0,736,0,8.6,8.5
2023/06/13 20:50,94,71,0,92,89,33,18,1.81,44,71.0,63,26,0.5,0,7,6,6,1714,1212,715,0,44,58,18,0,79,1.0,6.2,11.09,0,736,0,8.5,8.5
2023/06/13 20:52,95,73,1,94,93,41,22,2.13,45,71.0,64,28,0.44,0.8,9,6,6,1714,1232,715,0,44,58,18,0,79,1.1,6.2,11.03,0,736,0,8.5,8.5
2023/06/13 20:54,96,74,1,95,93,45,22,2.42,45,72.5,66,33,0.44,2.8,9,6,6,1721,1238,717,0,44,59,18,0,79,1.1,6.3,10.89,0,744,0,8.5,8.6
2023/06/13 20:56,96,79,1,95,93,46,22,2.67,45,73.5,67,33,0.44,-6,9,7,7,1699,1277,715,0,43,60,17,0,77,1.1,6.3,10.41,0,751,0,8.6,8.6
2023/06/13 20:58,96,79,2,95,92,46,29,2.67,45,73.5,64,33,0.44,0,9,7,7,1642,1252,652,0,76,66,25,0,73,1.1,7.2,10.35,0,710,0,8.5,8.3
2023/06/13 21:00,96,82,3,95,92,48,29,2.67,44,73.5,64,33,0.44,0,9,8,8,1636,1253,652,0,77,66,25,0,74,1.1,7.2,10.23,0,710,0,8.5,8.3
2023/06/13 21:02,94,81,3,94,93,42,29,2.03,42,73.0,64,22,0.44,0,9,8,8,1631,1253,652,0,77,66,25,0,74,1.1,7.2,10.17,0,712,0,8.5,8.3
2023/06/13 21:04,93,79,4,94,92,39,27,2.55,43,75.0,67,19,0.3,0.2,9,8,7,1621,1255,652,0,88,67,24,0,70,1.0,7.3,9.96,0,714,0,8.6,8.3
2023/06/13 21:06,93,79,4,94,92,40,28,2.62,43,75.5,67,19,0.3,1.0,9,8,7,1613,1256,637,0,89,68,24,0,70,1.0,7.3,9.78,0,715,0,8.6,8.3
2023/06/13 21:08,93,76,2,94,92,40,29,2.62,43,76.0,67,19,0.3,0.1,9,7,7,1613,1256,637,0,90,67,24,0,63,1.0,7.3,9.75,0,715,0,8.6,8.3
2023/06/13 21:10,93,76,2,94,92,37,29,2.62,43,76.0,65,19,0.3,0,9,7,7,1613,1256,637,0,92,68,24,0,65,1.0,7.3,9.58,0,715,0,8.6,8.3
2023/06/13 21:12,93,79,2,94,89,37,27,2.49,43,76.0,66,21,0.3,0.9,9,7,7,1613,1258,636,0,99,67,24,0,62,1.0,7.3,9.56,0,715,0,8.6,8.3
2023/06/13 21:14,94,81,2,94,93,40,30,2.63,45,75.0,68,24,0.3,1.9,9,7,8,1611,1258,636,0,105,67,23,0,53,1.0,7.3,9.42,0,721,0,8.6,8.3
2023/06/13 21:16,95,81,2,94,90,42,28,2.63,46,77.0,68,30,0.34,3.7,9,7,5,1601,1249,617,0,85,64,25,0,36,1.0,7.2,9.75,0,726,0,8.8,8.2
2023/06/13 21:18,96,82,2,94,93,46,29,2.7,46,77.0,68,33,0.34,1.6,9,7,5,1600,1249,619,0,91,65,25,0,45,1.0,7.3,9.7,0,726,0,8.8,8.2
2023/06/13 21:20,96,73,1,94,92,47,19,3.01,46,78.0,68,38,0.34,2.4,6,5,5,1600,1251,625,0,99,66,24,0,53,1.0,7.3,9.53,0,722,0,8.7,8.2
2023/06/13 21:22,96,74,1,95,93,52,32,3.01,46,78.0,68,38,0.34,-2,6,5,6,1600,1251,625,0,99,65,24,0,50,1.0,7.3,9.52,0,722,0,8.7,8.2
2023/06/13 21:24,96,74,1,95,93,49,34,3.43,47,78.0,70,38,0.34,0,6,5,6,1593,1249,624,0,101,65,24,0,61,1.0,7.3,9.45,0,727,0,8.8,8.2
2023/06/13 21:26,96,71,1,95,93,51,33,3.43,47,77.5,69,39,0.34,1.5,7,4,5,1593,1246,624,0,100,65,24,0,64,1.0,7.3,9.39,0,727,0,8.8,8.2
2023/06/13 21:28,96,74,1,95,92,55,32,3.43,47,77.5,68,39,0.34,-1,6,5,5,1577,1246,624,0,100,65,24,0,61,1.0,7.3,9.34,0,727,0,8.8,8.2
2023/06/13 21:30,97,73,1,94,92,52,22,3.19,46,77.5,68,43,0.34,2.2,6,5,4,1598,1249,628,0,92,65,24,0,62,1.0,7.3,9.39,0,721,0,8.7,8.3
2023/06/13 21:32,97,74,1,93,92,48,17,2.93,46,77.5,68,43,0.34,0,6,5,4,1593,1249,624,0,97,65,24,0,45,1.0,7.3,9.19,0,727,0,8.8,8.2
2023/06/13 21:34,97,69,0,94,92,47,17,2.91,46,77.5,66,43,0.34,0,5,4,4,1598,1251,626,0,94,65,24,0,63,1.0,7.3,9.05,0,727,0,8.7,8.3
2023/06/13 21:36,97,69,0,94,92,47,16,2.56,46,73.5,66,43,0.34,0.5,5,4,4,1597,1249,624,0,96,65,24,0,65,1.0,7.3,8.99,0,727,0,8.8,8.2
2023/06/13 21:38,97,58,0,92,92,44,14,2.49,46,72.0,66,39,0.34,0.0,4,3,4,1597,1249,624,0,93,65,24,0,65,1.0,7.3,8.96,0,727,0,8.8,8.2
2023/06/13 21:40,97,69,0,94,92,52,19,2.44,48,73.0,66,44,0.46,1.2,7,4,4,1598,1251,625,0,96,65,24,0,62,1.0,7.3,8.85,0,727,0,8.7,8.2
2023/06/13 21:42,97,74,1,95,93,57,26,2.65,48,74.0,67,44,0.46,-2,8,5,5,1599,1252,626,0,93,65,24,0,60,1.0,7.3,8.8,0,725,0,8.7,8.2
2023/06/13 21:44,97,74,1,95,93,58,27,2.65,48,74.0,66,44,0.46,0,8,5,5,1599,1252,627,0,89,64,24,0,73,1.0,7.3,8.71,0,727,0,8.8,8.2
2023/06/13 21:46,97,74,1,95,92,59,27,2.65,48,75.0,67,44,0.46,1.0,8,5,5,1601,1256,631,0,87,64,24,0,74,1.0,7.3,8.62,0,723,0,8.7,8.2
2023/06/13 21:48,97,79,1,95,92,57,29,2.51,46,75.5,66,41,0.46,0.4,9,6,6,1599,1256,628,0,87,64,24,0,63,1.0,7.3,8.57,0,727,0,8.7,8.2
2023/06/13 21:50,97,87,15,95,93,54,38,2.51,44,75.5,64,41,0.48,0,14,9,9,1591,1261,627,0,81,64,24,0,64,1.1,7.3,8.36,0,728,0,8.8,8.2
2023/06/13 21:52,97,89,34,95,91,62,40,1.98,43,75.5,63,41,0.48,-1,14,12,12,1591,1251,631,0,77,64,24,0,67,1.1,7.4,8.3,0,728,0,8.7,8.2
2023/06/13 21:54,97,89,30,95,91,64,39,1.98,43,73.0,63,41,0.48,1.2,14,12,10,1591,1251,633,0,75,64,24,0,58,1.1,7.4,8.15,0,730,0,8.7,8.2
2023/06/13 21:56,97,89,30,95,92,59,39,1.9,43,73.0,64,40,0.48,0.7,14,12,10,1591,1251,633,0,75,64,24,0,63,1.1,7.4,8.15,0,730,0,8.7,8.2
2023/06/13 21:58,97,89,13,95,91,52,36,1.9,43,71.5,61,44,0.49,1.0,12,10,9,1549,1241,620,0,73,65,25,0,75,1.1,7.4,7.91,0,733,0,8.7,8.2
2023/06/13 22:00,97,89,16,95,91,63,28,1.9,43,71.5,61,44,0.49,-1,13,10,10,1503,1254,565,0,59,61,28,0,74,1.1,7.4,7.79,0,623,0,8.5,8.0
2023/06/13 22:02,94,87,19,94,86,62,29,1.38,42,70.0,59,44,0.49,0,13,10,8,1496,1248,565,0,59,62,28,0,83,1.1,7.4,7.58,0,627,0,8.4,8.0
2023/06/13 22:04,95,89,19,94,85,62,30,1.53,46,67.0,61,44,0.49,1.1,13,10,9,1495,1244,559,0,60,63,28,0,76,1.1,7.4,7.4,0,634,0,8.4,7.9
2023/06/13 22:06,96,87,13,94,86,59,29,1.53,46,67.5,62,39,0.49,0,12,9,9,1494,1239,552,0,59,64,28,0,76,1.1,7.4,7.23,0,637,0,8.4,7.9
2023/06/13 22:08,95,89,14,94,87,63,31,1.53,46,67.5,60,42,0.49,1.2,13,9,8,1494,1238,552,0,59,64,28,0,87,1.1,7.4,7.17,0,640,0,8.4,7.9
2023/06/13 22:10,95,89,17,94,87,62,29,1.51,44,67.5,61,42,0.49,0,13,10,8,1494,1237,552,0,59,64,28,0,77,1.1,7.4,7.04,0,645,0,8.4,7.9
2023/06/13 22:12,94,89,18,94,86,65,29,1.44,46,67.5,62,42,0.49,0,13,10,9,1495,1233,552,0,59,64,28,0,79,1.1,7.4,6.87,0,648,0,8.3,8.0
2023/06/13 22:14,95,89,18,94,86,60,30,1.58,46,65.0,62,42,0.49,0.9,13,10,9,1495,1226,557,0,58,64,28,0,87,1.1,7.4,6.71,0,650,0,8.3,8.0
2023/06/13 22:16,95,87,14,94,87,60,30,1.68,46,65.5,63,40,0.49,-2,12,8,9,1496,1224,557,0,57,64,28,0,86,1.1,7.4,6.65,0,650,0,8.3,8.0
2023/06/13 22:18,94,87,16,94,86,60,31,1.72,46,65.5,63,40,0.49,0.1,13,9,9,1498,1202,567,0,53,65,28,0,86,1.0,7.4,6.38,0,650,0,8.1,8.0
2023/06/13 22:20,95,87,16,95,86,60,29,1.72,46,67.0,62,40,0.49,0,13,9,9,1498,1199,561,0,53,64,28,0,78,1.0,7.4,6.29,0,654,0,8.1,8.0
2023/06/13 22:22,93,85,14,94,86,55,27,1.72,44,67.0,63,32,0.49,0.3,13,9,9,1501,1191,561,0,53,63,28,0,73,1.0,7.4,6.19,0,656,0,8.1,8.1
2023/06/13 22:24,95,89,17,95,92,61,29,1.76,44,67.0,64,42,0.49,2.9,15,9,8,1508,1186,557,0,53,63,28,0,80,1.0,7.4,6.03,0,656,0,8.1,8.1
2023/06/13 22:26,95,89,24,95,92,63,32,1.82,44,68.0,64,47,0.49,0.7,17,10,7,1521,1176,551,0,51,62,29,0,83,1.0,7.4,5.82,0,656,0,8.0,8.1
2023/06/13 22:28,95,92,37,95,90,63,34,1.82,43,69.5,62,47,0.49,0,17,10,11,1526,1176,548,0,51,62,29,0,89,1.0,7.4,5.75,0,656,0,8.0,8.1
2023/06/13 22:30,95,89,36,95,90,63,34,1.82,42,70.0,62,47,0.38,0.7,17,10,9,1534,1176,544,0,51,62,29,0,92,1.0,7.4,5.65,0,656,0,8.0,8.1
2023/06/13 22:32,95,87,26,95,92,66,31,1.77,43,70.0,64,47,0.38,0,14,8,9,1552,1174,538,0,52,62,29,0,90,1.0,7.4,5.52,0,656,0,8.0,8.1
2023/06/13 22:34,96,87,17,95,93,66,32,1.87,44,70.0,64,47,0.38,-1,14,8,9,1553,1174,538,0,53,62,29,0,96,1.0,7.4,5.49,0,656,0,8.0,8.1
2023/06/13 22:36,96,89,40,95,93,66,34,1.89,44,69.5,66,47,0.38,0.9,18,11,11,1573,1176,534,0,53,62,29,0,97,1.0,7.4,5.39,0,655,0,7.9,8.2
2023/06/13 22:38,96,87,40,96,93,67,35,2.2,44,70.5,66,44,0.38,0,18,11,11,1582,1178,534,0,53,62,29,0,97,1.0,7.5,5.24,0,653,0,7.9,8.2
2023/06/13 22:40,96,87,40,96,93,67,34,2.2,45,71.5,66,42,0.38,0,18,11,10,1587,1178,534,0,53,62,29,0,96,1.0,7.5,5.2,0,651,0,7.9,8.2
2023/06/13 22:42,96,87,29,95,92,63,36,2.2,45,75.0,65,42,0.43,-2,18,14,11,1599,1178,540,0,53,63,29,0,96,1.0,7.5,5.08,0,645,0,7.9,8.2
2023/06/13 22:44,96,87,35,95,93,65,36,2.11,45,75.0,66,45,0.43,3.1,18,14,10,1610,1185,543,0,58,64,29,0,97,1.0,7.5,4.97,0,641,0,7.9,8.2
2023/06/13 22:46,97,87,35,96,93,64,36,2.36,42,75.0,68,45,0.43,0,18,14,7,1613,1188,544,0,59,65,29,0,95,1.0,7.5,4.92,0,641,0,7.9,8.2
2023/06/13 22:48,97,85,14,96,93,65,32,2.43,47,76.0,67,45,0.43,0,16,8,8,1613,1188,545,0,59,68,29,0,95,1.0,7.5,4.78,0,629,0,7.8,8.2
2023/06/13 22:50,97,82,4,96,93,62,30,2.43,47,76.0,68,45,0.43,0.3,13,7,7,1613,1188,549,0,59,69,29,0,93,1.0,7.5,4.69,0,629,0,7.8,8.2
2023/06/13 22:52,96,83,25,96,93,57,29,2.43,47,76.0,66,39,0.43,0,14,8,10,1614,1188,552,0,59,71,29,0,91,1.1,7.5,4.57,0,625,0,7.8,8.3
2023/06/13 22:54,96,89,42,96,91,66,32,2.39,46,76.0,66,49,0.43,1.7,17,10,10,1613,1188,558,0,60,74,29,0,92,1.1,7.5,4.45,0,622,0,7.8,8.3
2023/06/13 22:56,96,89,45,96,93,67,32,2.17,46,74.0,66,49,0.43,0,17,10,9,1613,1188,561,0,60,75,29,0,92,1.1,7.5,4.37,0,622,0,7.8,8.3
2023/06/13 22:58,96,89,45,96,93,67,32,2.07,46,74.5,66,49,0.43,0,17,10,9,1604,1186,564,0,60,76,29,0,93,1.1,7.5,4.28,0,620,0,7.8,8.3
2023/06/13 23:00,96,87,32,95,92,58,34,2.07,46,74.5,65,49,0.43,0.3,19,8,9,1634,1349,684,0,94,76,27,0,95,1.1,7.5,4.23,0,584,0,7.6,8.2
2023/06/13 23:02,96,87,37,95,91,54,33,1.94,46,74.5,64,53,0.47,1.6,16,8,8,1620,1335,671,0,94,76,27,0,93,1.1,7.5,4.12,0,592,0,7.6,8.2
2023/06/13 23:04,96,87,34,95,90,61,31,1.94,44,73.0,62,58,0.47,0.8,16,8,7,1634,1327,657,0,96,76,28,0,84,1.0,7.5,4.11,0,596,0,7.6,8.1
2023/06/13 23:06,97,89,39,95,90,60,33,1.87,44,73.0,62,68,0.68,2.2,23,14,7,1630,1326,649,0,94,76,28,0,79,1.0,7.5,4.08,0,598,0,7.6,8.1
2023/06/13 23:08,95,89,40,95,85,62,33,1.59,42,73.0,62,68,0.68,0,23,14,8,1629,1335,647,0,97,76,28,0,75,1.0,7.5,4.02,0,600,0,7.6,8.1
2023/06/13 23:10,95,92,40,95,85,72,33,1.6,42,73.0,62,68,0.68,-2,23,14,7,1627,1335,634,0,98,76,28,0,68,1.0,7.5,3.87,0,609,0,7.6,8.1
2023/06/13 23:12,95,89,21,94,84,63,30,1.6,42,71.5,60,68,0.68,0.4,16,8,6,1613,1327,627,0,98,76,28,0,78,1.0,7.5,3.83,0,615,0,7.6,8.1
2023/06/13 23:14,95,89,20,95,84,63,30,1.6,42,71.5,58,67,0.68,-1,13,8,6,1613,1326,622,0,94,76,28,0,73,1.0,7.5,3.77,0,618,0,7.6,8.1
2023/06/13 23:16,94,87,17,94,83,66,30,1.32,42,71.5,58,70,0.68,2.5,13,8,6,1518,1245,604,0,89,73,27,0,72,1.0,7.5,3.68,0,625,0,7.6,8.1
2023/06/13 23:18,90,92,40,92,86,65,29,1.15,41,68.0,60,71,0.68,0.1,24,9,9,1518,1245,592,0,92,74,27,0,90,1.0,7.5,3.6,0,637,0,7.6,8.1
2023/06/13 23:20,92,92,44,93,86,68,29,1.21,39,68.0,60,71,0.68,0,23,10,9,1486,1230,588,0,89,74,27,0,87,1.0,7.5,3.53,0,642,0,7.6,8.1
2023/06/13 23:22,96,95,39,95,86,67,32,1.56,45,70.5,61,77,0.68,1.0,23,10,9,1456,1184,581,0,87,72,27,0,86,1.0,7.5,3.47,0,648,0,7.6,8.1
2023/06/13 23:24,96,95,47,95,87,69,32,1.56,47,70.5,60,77,0.68,0,23,10,10,1426,1152,576,0,83,72,27,0,82,1.0,7.5,3.41,0,654,0,7.6,8.2
2023/06/13 23:26,96,92,42,95,86,66,31,1.56,47,70.5,60,77,0.68,0.3,17,9,10,1412,1146,576,0,82,71,26,0,82,1.0,7.5,3.39,0,659,0,7.6,8.2
2023/06/13 23:28,94,92,39,95,87,67,30,1.46,47,70.0,60,77,0.68,0,22,8,10,1395,1112,565,0,76,71,26,0,79,1.0,7.5,3.29,0,667,0,7.7,8.2
2023/06/13 23:30,94,92,36,95,85,66,29,1.5,46,70.0,61,75,0.68,1.1,24,8,7,1393,1099,561,0,74,70,26,0,86,1.0,7.5,3.27,0,672,0,7.7,8.2
2023/06/13 23:32,94,92,26,95,82,69,30,1.5,46,70.0,60,76,0.68,0.0,23,7,7,1390,1095,546,0,73,70,26,0,87,1.0,7.5,3.2,0,679,0,7.7,8.2
2023/06/13 23:34,94,89,14,95,85,69,31,1.5,47,70.0,61,80,0.68,0.9,23,7,7,1390,1088,543,0,72,71,26,0,90,1.0,7.5,3.16,0,687,0,7.7,8.2
2023/06/13 23:36,94,89,6,94,84,67,27,1.54,47,68.5,62,80,0.68,-2,12,6,7,1388,1085,534,0,71,71,25,0,90,1.0,7.5,3.14,0,690,0,7.7,8.2
2023/06/13 23:38,95,89,6,94,89,68,28,1.74,47,68.5,64,80,0.64,1.5,12,6,7,1390,1095,534,0,71,71,25,0,93,1.0,7.5,3.13,0,692,0,7.7,8.2
2023/06/13 23:40,97,92,11,95,93,73,30,2.08,46,71.5,66,80,0.41,0,16,7,8,1389,1079,527,0,69,71,25,0,88,1.0,7.5,3.09,0,700,0,7.7,8.1
2023/06/13 23:42,97,89,14,96,93,76,32,2.19,46,71.5,65,80,0.41,-1,15,7,9,1397,1096,529,0,67,71,25,0,89,1.0,7.5,3.04,0,704,0,7.7,8.1
2023/06/13 23:44,97,89,14,96,93,77,32,2.19,48,73.0,64,80,0.41,0,15,7,9,1432,1113,529,0,67,71,25,0,94,0.9,7.5,2.9,0,711,0,7.8,8.1
2023/06/13 23:46,96,92,20,95,93,74,32,2.3,48,73.0,66,76,0.49,1.6,14,9,9,1468,1128,534,0,67,72,25,0,93,0.9,7.5,2.87,0,716,0,7.8,8.1
2023/06/13 23:48,96,92,26,96,93,77,34,2.3,48,73.0,66,76,0.49,0,14,9,9,1471,1133,537,0,67,72,25,0,95,0.9,7.5,2.85,0,718,0,7.8,8.1
2023/06/13 23:50,98,92,52,96,93,76,33,2.3,47,73.0,66,76,0.49,0.1,18,9,10,1505,1180,540,0,66,73,25,0,96,1.0,7.5,2.74,0,730,0,7.8,8.1
2023/06/13 23:52,98,92,55,95,93,72,33,2.24,46,73.0,66,76,0.58,-1,15,9,9,1558,1184,544,0,66,73,25,0,94,1.0,7.5,2.73,0,733,0,7.8,8.1
2023/06/13 23:54,97,95,55,96,93,76,34,2.39,48,71.5,66,73,0.58,0.3,23,10,9,1585,1241,562,0,66,76,24,0,89,1.0,7.6,2.62,0,749,0,7.9,8.1
2023/06/13 23:56,97,92,59,96,93,76,35,2.39,48,71.5,66,73,0.58,0.6,34,11,10,1597,1251,566,0,65,77,24,0,91,1.0,7.6,2.61,0,754,0,7.9,8.1
2023/06/13 23:58,97,92,61,96,93,78,33,2.49,48,70.5,66,71,0.58,-1,34,11,10,1448,1111,515,0,47,78,25,0,87,1.1,7.6,2.6,0,732,0,8.0,7.8
2023/06/14 00:00,97,92,61,96,93,77,34,2.49,49,70.5,66,71,0.58,0.4,34,11,10,1435,1110,512,0,46,78,25,0,90,1.1,7.6,2.62,0,749,0,8.0,7.8
2023/06/14 00:02,97,95,61,96,93,79,34,2.49,49,70.0,66,71,0.58,-1,34,11,10,1434,1110,508,0,46,78,25,0,92,1.1,7.6,2.61,0,754,0,8.0,7.8
2023/06/14 00:04,96,95,60,96,93,77,35,2.35,49,71.5,65,66,0.58,-1,34,11,11,1433,1112,508,0,44,79,24,0,90,1.1,7.6,2.69,0,771,0,8.0,7.9
2023/06/14 00:06,96,95,55,96,93,78,33,2.25,48,71.5,64,66,0.58,0,18,10,9,1433,1111,501,0,43,79,24,0,91,1.1,7.6,2.7,0,775,0,8.0,7.8
2023/06/14 00:08,95,95,55,95,93,75,30,2.17,48,71.5,66,60,0.58,-1,18,10,9,1424,1108,496,0,42,80,23,0,84,1.1,7.6,2.76,0,792,0,8.0,7.8
2023/06/14 00:10,96,95,43,96,93,71,32,2.25,50,71.5,66,53,0.58,2.5,16,9,10,1434,1125,498,0,47,80,25,0,87,1.1,7.6,2.54,0,815,0,8.0,7.8
2023/06/14 00:12,96,95,40,95,93,71,31,2.25,50,69.5,66,53,0.58,0,16,9,10,1435,1127,498,0,45,80,24,0,89,1.1,7.6,2.68,0,824,0,8.0,7.8
2023/06/14 00:14,96,95,44,96,93,69,31,2.25,50,70.0,64,53,0.58,0.1,15,10,10,1432,1119,493,0,48,80,23,0,85,1.1,7.6,2.73,0,827,0,7.9,7.8
2023/06/14 00:16,95,95,60,96,91,71,30,2.12,48,70.0,62,59,0.58,1.5,21,10,12,1432,1119,493,0,49,80,23,0,81,1.1,7.6,2.74,0,827,0,7.9,7.8
2023/06/14 00:18,96,95,60,96,91,74,30,2.12,48,70.0,62,59,0.58,-3,21,10,12,1443,1134,493,0,53,80,24,0,90,1.1,7.6,2.83,0,828,0,7.9,7.8
2023/06/14 00:20,92,95,60,95,85,74,30,1.54,45,70.0,58,59,0.58,0.7,17,10,10,1456,1143,494,0,56,80,24,0,90,1.1,7.6,2.89,0,828,0,7.9,7.8
2023/06/14 00:22,94,95,60,94,83,69,33,1.47,45,68.5,58,63,0.58,1.6,23,10,10,1473,1156,498,0,60,80,24,0,90,1.1,7.6,3.02,0,827,0,7.8,7.8
2023/06/14 00:24,86,95,53,92,81,72,29,1.06,42,68.5,58,63,0.48,0,23,10,11,1485,1168,500,0,62,80,25,0,92,1.1,7.6,3.06,0,827,0,7.8,7.8
2023/06/14 00:26,83,92,61,92,81,70,31,1.09,42,66.5,58,63,0.48,-1,23,11,12,1515,1178,503,0,69,80,25,0,94,1.1,7.6,3.2,0,823,0,7.7,7.8
2023/06/14 00:28,92,92,63,94,83,68,36,1.45,40,66.5,62,63,0.48,0.2,19,12,12,1580,1223,525,0,73,81,26,0,93,1.1,7.6,3.25,0,820,0,7.7,7.8
2023/06/14 00:30,91,92,64,94,84,62,36,1.45,39,65.5,62,55,0.48,0.1,23,13,12,1580,1223,525,0,73,81,26,0,92,1.1,7.6,3.26,0,820,0,7.7,7.8
2023/06/14 00:32,92,89,60,93,85,61,38,1.45,38,68.0,62,43,0.48,0,23,16,12,1619,1240,539,0,75,82,27,0,93,1.0,7.6,3.48,0,809,0,7.6,7.8
2023/06/14 00:34,95,95,60,95,90,65,37,1.76,45,69.5,62,52,0.48,2.5,23,16,12,1690,1258,555,0,76,82,28,0,95,1.0,7.6,3.41,0,814,0,7.6,7.8
2023/06/14 00:36,95,95,60,95,92,69,37,1.76,45,69.5,65,59,0.48,0.7,23,16,11,1706,1258,556,0,76,83,28,0,94,1.0,7.6,3.48,0,814,0,7.6,7.8
2023/06/14 00:38,96,95,60,95,92,69,37,1.92,45,70.5,65,59,0.48,0,30,14,11,1720,1266,565,0,77,84,29,0,95,1.0,7.6,3.6,0,814,0,7.6,7.8
2023/06/14 00:40,96,95,64,95,89,71,37,1.92,45,70.5,64,59,0.48,0,22,12,11,1725,1266,569,0,77,86,29,0,97,1.0,7.6,3.71,0,814,0,7.6,7.8